Emigrant Gap, CA

9:42 AM PDT on August 31, 2016 (GMT -0700)
Blue Canyon-Nyack

Weather History for KBLU - May, 2012

Change the Weather History Date:

Sunday, May 6, 2012

  Actual Average Record
Temperature  
Mean Temperature 56 °F -  
Max Temperature 66 °F 57 °F 80 °F (1987)
Min Temperature 45 °F 39 °F 22 °F (1964)
Degree Days  
Heating Degree Days 10    
Growing Degree Days 6 (Base 50)    
Moisture  
Dew Point 13 °F    
Average Humidity 20    
Maximum Humidity 26    
Minimum Humidity 10    
Precipitation  
Precipitation 0.00 in - - ()
Sea Level Pressure  
Sea Level Pressure 30.04 in    
Wind  
Wind Speed 9 mph (ENE)    
Max Wind Speed 14 mph    
Max Gust Speed 34 mph    
Visibility 10 miles    
Events      
Averages and records for this station are not official NWS values.
T = Trace of Precipitation, MM = Missing Value Source: NWS Daily Summary

Daily Weather History Graph

Daily Weather History Graph

Search for Another Location

Airport or City:

Trip Planner

Search our weather history database for the weather conditions in past years. The results will help you decide how hot, cold, wet, or windy it might be!

Date:

Astronomy

May. 06, 2012 Rise Set
Actual Time 5:57 AM PDT 8:01 PM PDT
Civil Twilight 5:28 AM PDT 8:31 PM PDT
Nautical Twilight 4:52 AM PDT 9:07 PM PDT
Astronomical Twilight 4:13 AM PDT 9:46 PM PDT
Moon 9:12 PM PDT (5/6) 6:12 AM PDT (5/6)
Length of Visible Light 15h 02m
Length of Day
14h 03m
Full, 99% of the Moon is Illuminated
May 6
Full
May 12
Last Quarter
May 20
New
May 28
First Quarter
Jun 4
Full

Hourly Weather History & Observations

Time (PDT) Temp. Windchill Dew Point Humidity Pressure Visibility Wind Dir Wind Speed Gust Speed Precip Events Conditions
12:52 AM 48.0 °F - 10.0 °F 22% 30.04 in 10.0 mi ENE 9.2 mph 25.3 mph N/A   Clear
1:52 AM 48.0 °F - 9.0 °F 21% 30.01 in 10.0 mi ENE 10.4 mph 27.6 mph N/A   Clear
2:52 AM 46.9 °F - 8.1 °F 21% 30.01 in 10.0 mi ENE 12.7 mph 27.6 mph N/A   Clear
3:52 AM 46.0 °F 41.9 °F 10.0 °F 23% 30.01 in 10.0 mi ENE 8.1 mph 23.0 mph N/A   Clear
4:52 AM 45.0 °F 39.7 °F 10.9 °F 25% 30.01 in 10.0 mi ENE 10.4 mph 20.7 mph N/A   Clear
5:52 AM 45.0 °F 38.5 °F 12.0 °F 26% 30.01 in 10.0 mi ENE 13.8 mph 34.5 mph N/A   Clear
6:52 AM 46.0 °F 40.6 °F 12.0 °F 25% 30.02 in 10.0 mi ENE 11.5 mph 32.2 mph N/A   Clear
8:52 AM 51.1 °F - 16.0 °F 25% 30.06 in 10.0 mi ENE 11.5 mph 21.9 mph N/A   Clear
9:52 AM 53.1 °F - 15.1 °F 22% 30.06 in 10.0 mi ENE 13.8 mph 29.9 mph N/A   Clear
10:52 AM 57.0 °F - 17.1 °F 21% 30.06 in 10.0 mi Variable 6.9 mph 17.3 mph N/A   Clear
11:52 AM 60.1 °F - 19.9 °F 21% 30.06 in 10.0 mi ENE 9.2 mph 18.4 mph N/A   Clear
12:52 PM 62.1 °F - 16.0 °F 17% 30.06 in 10.0 mi Variable 5.8 mph - N/A   Clear
1:52 PM 64.0 °F - 17.1 °F 16% 30.05 in 10.0 mi ENE 8.1 mph - N/A   Clear
2:52 PM 64.9 °F - 10.0 °F 12% 30.05 in 10.0 mi ESE 6.9 mph - N/A   Clear
3:52 PM 64.9 °F - 7.0 °F 10% 30.04 in 10.0 mi Variable 4.6 mph - N/A   Clear
4:52 PM 66.9 °F - 16.0 °F 14% 30.04 in 10.0 mi Variable 4.6 mph - N/A   Clear
5:52 PM 64.9 °F - 16.0 °F 15% 30.04 in 10.0 mi Variable 5.8 mph - N/A   Clear
6:52 PM 63.0 °F - 16.0 °F 16% 30.04 in 10.0 mi ENE 3.5 mph - N/A   Clear
7:52 PM 57.9 °F - 16.0 °F 19% 30.06 in 10.0 mi Variable 6.9 mph - N/A   Clear
8:52 PM 55.0 °F - 12.9 °F 19% 30.07 in 10.0 mi ENE 6.9 mph - N/A   Clear
9:52 PM 53.1 °F - 14.0 °F 21% 30.09 in 10.0 mi Variable 4.6 mph - N/A   Clear
10:52 PM 53.1 °F - 12.9 °F 20% 30.06 in 10.0 mi ENE 10.4 mph 16.1 mph N/A   Clear
11:52 PM 54.0 °F - 12.0 °F 19% 30.04 in 10.0 mi ENE 11.5 mph 19.6 mph N/A   Clear